CDT,Max TemperatureF,Mean TemperatureF,Min TemperatureF,Max Dew PointF,MeanDew PointF,Min DewpointF,Max Humidity, Mean Humidity, Min Humidity, Max Sea Level PressureIn, Mean Sea Level PressureIn, Min Sea Level PressureIn, Max VisibilityMiles, Mean VisibilityMiles, Min VisibilityMiles, Max Wind SpeedMPH, Mean Wind SpeedMPH, Max Gust SpeedMPH,PrecipitationIn, CloudCover, Events, WindDirDegrees
2013-10-1,77,70,62,68,66,61,100,89,74,30.06,30.02,29.98,10,7,4,10,5,,0.00,6,,175
2013-10-2,84,73,64,70,67,63,100,91,63,30.09,30.05,30.00,10,4,0,15,2,,0.03,6,Fog-Rain,190
2013-10-3,86,75,66,68,66,65,97,76,53,30.03,29.99,29.93,10,10,6,16,6,22,0.01,4,Rain,180
2013-10-4,87,78,69,70,69,66,100,83,55,30.05,29.99,29.94,10,8,2,14,7,30,0.05,5,Rain-Thunderstorm,186
2013-10-5,82,73,62,72,68,61,100,90,70,29.99,29.93,29.86,10,6,0,18,7,28,1.85,6,Fog-Rain-Thunderstorm,206
2013-10-6,66,56,46,54,47,40,88,71,42,29.94,29.89,29.83,10,10,10,16,8,22,0.00,4,Rain,266
2013-10-7,68,56,45,50,45,42,93,74,43,30.16,30.06,29.93,10,10,8,13,5,20,0.00,2,,284
2013-10-8,73,57,42,51,45,41,100,84,36,30.23,30.17,30.14,10,5,0,10,1,16,0.01,0,Fog,118
2013-10-9,75,58,42,59,47,41,100,87,48,30.20,30.14,30.10,10,3,0,6,0,,0.00,1,Fog,137
2013-10-10,80,66,53,63,57,52,100,85,54,30.16,30.10,30.03,10,9,5,6,1,,0.01,3,,209
2013-10-11,79,65,52,61,55,52,100,82,48,30.06,30.02,29.96,10,9,6,13,2,20,0.01,2,,174
2013-10-12,71,63,55,66,61,54,100,92,78,30.17,30.07,29.98,10,5,0,8,2,,0.29,5,Fog-Rain-Thunderstorm,183
2013-10-13,75,60,48,55,46,39,93,66,29,30.35,30.29,30.19,10,10,10,10,5,,0.00,0,,4
2013-10-14,69,56,44,56,49,42,96,80,58,30.32,30.23,30.08,10,10,10,6,3,,0.01,3,,77
2013-10-15,69,64,61,64,62,56,100,89,83,30.06,29.97,29.92,10,8,2,16,7,17,0.12,7,Rain,189
2013-10-16,64,54,46,54,47,44,93,73,50,30.05,30.00,29.97,10,10,7,8,5,,0.00,4,,318
2013-10-17,64,54,44,48,46,43,100,81,50,30.02,29.99,29.95,10,9,2,10,3,,0.12,4,Rain,250
2013-10-18,66,52,39,48,43,39,100,85,43,30.06,30.00,29.96,10,5,0,8,1,,0.02,1,Fog-Rain,261
2013-10-19,57,50,41,45,40,33,93,79,40,30.05,30.00,29.96,10,10,8,12,7,,0.16,5,Rain,309
2013-10-20,66,50,37,42,40,35,93,70,43,30.04,30.00,29.96,10,10,6,18,6,24,0.00,0,,185
2013-10-21,64,52,42,47,43,37,89,75,56,30.09,30.01,29.99,10,10,10,13,6,,0.00,5,,268
2013-10-22,61,45,33,46,37,32,100,75,41,30.09,29.99,29.84,10,9,2,18,4,26,0.04,3,Rain,220
2013-10-23,51,44,39,40,34,28,86,69,43,30.14,30.08,29.94,10,10,10,16,10,28,0.00,6,,319
2013-10-24,51,42,30,37,31,23,89,67,35,30.42,30.26,30.14,10,10,10,18,5,48,0.00,4,,325
2013-10-25,52,38,25,30,25,21,96,69,31,30.56,30.45,30.29,10,9,2,6,1,,0.00,0,,192
2013-10-26,60,46,33,42,34,26,90,62,45,30.26,30.14,30.04,10,10,10,21,8,29,0.00,2,,208
2013-10-27,61,44,28,37,32,27,96,71,30,30.15,30.10,30.05,10,9,2,5,1,,0.00,0,,338
2013-10-28,70,50,30,44,38,30,96,73,33,30.25,30.18,30.09,10,9,2,5,1,,0.00,1,,109
2013-10-29,64,50,39,62,51,39,100,93,88,30.28,30.19,30.09,10,5,2,9,2,,0.43,6,Rain-Thunderstorm,142
2013-10-30,77,69,63,64,62,60,93,81,62,30.10,30.02,29.91,10,9,5,22,11,29,0.12,6,Rain,190
2013-10-31,68,62,53,65,60,49,96,91,82,29.91,29.62,29.42,10,6,1,23,13,36,1.83,7,Rain-Thunderstorm,207